Simultaneous Nadir Overpasses (SNOs) Predictions

Prediction of SNOs between METOP-B and TERRA Satellite Orbit:

Table of predicted SNOs for the next 14.0 days since TLE Epoch: 11/20/2021
Index Date (METOP-B) Time (METOP-B) Lat,Lon (METOP-B) SZA (METOP-B ) Date (TERRA) Time (TERRA) Lat,Lon (TERRA) SZA (TERRA ) Distance(km) Time Diff (sec)
1 11/21/2021 01:44:07 81.24,-162.28 103.84 11/21/2021 01:44:57 81.24,-162.25 103.86 0.78 50
2 11/21/2021 02:34:46 -81.26, 5.79 76.07 11/21/2021 02:34:23 -81.25, 5.65 76.10 2.53 23
3 11/23/2021 21:18:28 81.24, -95.83 104.42 11/23/2021 21:19:07 81.25, -95.64 104.46 3.25 39
4 11/23/2021 22:09:07 -81.26, 72.24 75.49 11/23/2021 22:08:33 -81.27, 72.28 75.50 0.78 34
5 11/26/2021 16:52:49 81.25, -29.02 104.99 11/26/2021 16:53:18 81.26, -29.08 104.99 1.16 29
6 11/26/2021 17:43:29 -81.26, 138.67 74.97 11/26/2021 17:42:45 -81.25, 138.49 75.02 3.25 44
7 11/29/2021 12:27:11 81.25, 37.38 105.45 11/29/2021 12:27:29 81.26, 37.42 105.46 1.02 18
8 11/29/2021 13:17:51 -81.26,-154.93 74.51 11/29/2021 13:16:56 -81.26,-154.98 74.54 0.95 55
9 12/02/2021 08:01:33 81.25, 103.76 105.85 12/02/2021 08:01:40 81.26, 103.88 105.87 2.33 7



Historial Predications of SNOs between METOP-B and TERRA
